Talkeetna, AK

2:02 AM AKDT on August 20, 2017 (GMT -0800)
Talkeetna

Weather History for PATK - November, 2011

Change the Weather History Date:

Friday, November 4, 2011

  Actual Average Record
Temperature  
Mean Temperature 24 °F -  
Max Temperature 30 °F 29 °F 48 °F (2002)
Min Temperature 19 °F 14 °F -27 °F (1971)
Degree Days  
Heating Degree Days 40    
Moisture  
Dew Point 23 °F    
Average Humidity 86    
Maximum Humidity 100    
Minimum Humidity 71    
Precipitation  
Precipitation 0.04 in - - ()
Snow  
Snow 0.00 in - - ()
Snow Depth 4.00 in    
Sea Level Pressure  
Sea Level Pressure 29.40 in    
Wind  
Wind Speed 7 mph (NNE)    
Max Wind Speed 14 mph    
Max Gust Speed 22 mph    
Visibility 6 miles    
Events Snow    
Averages and records for this station are not official NWS values.
T = Trace of Precipitation, MM = Missing Value Source: NWS Daily Summary

Daily Weather History Graph

Daily Weather History Graph

Search for Another Location

Airport or City:

Trip Planner

Search our weather history database for the weather conditions in past years. The results will help you decide how hot, cold, wet, or windy it might be!

Date:

Astronomy

Nov. 04, 2011 Rise Set
Actual Time 9:42 AM AKDT 5:44 PM AKDT
Civil Twilight 8:51 AM AKDT 6:34 PM AKDT
Nautical Twilight 7:57 AM AKDT 7:28 PM AKDT
Astronomical Twilight 7:05 AM AKDT 8:20 PM AKDT
Moon 4:06 PM AKDT (11/4) 2:26 AM AKDT (11/4)
Length of Visible Light 9h 43m
Length of Day
8h 02m
Waxing Gibbous, 71% of the Moon is Illuminated
Nov 4
Waxing Gibbous
Nov 10
Full
Nov 18
Last Quarter
Nov 24
New
Dec 2
First Quarter

Hourly Weather History & Observations

Time (AKDT) Temp. Windchill Dew Point Humidity Pressure Visibility Wind Dir Wind Speed Gust Speed Precip Events Conditions
12:53 AM 19.9 °F 7.9 °F 18.0 °F 92% 29.38 in 1.2 mi NNE 11.5 mph 18.4 mph 0.01 in Snow Light Snow
1:20 AM 21.2 °F 9.5 °F 17.6 °F 86% 29.34 in 1.8 mi NNE 11.5 mph 18.4 mph 0.00 in Snow Light Snow
1:38 AM 21.2 °F 10.1 °F 17.6 °F 86% 29.33 in 2.0 mi NE 10.4 mph 18.4 mph 0.00 in Snow Light Snow
1:53 AM 21.0 °F 8.6 °F 18.0 °F 88% 29.35 in 3.0 mi NE 12.7 mph 18.4 mph 0.00 in Snow Light Snow
2:53 AM 21.9 °F 9.2 °F 18.0 °F 85% 29.34 in 4.0 mi NE 13.8 mph 21.9 mph 0.00 in Snow Light Snow
3:53 AM 23.0 °F 11.1 °F 18.0 °F 81% 29.32 in 6.0 mi NNE 12.7 mph 19.6 mph 0.00 in Snow Light Snow
4:53 AM 24.1 °F 13.7 °F 19.0 °F 81% 29.31 in 7.0 mi NNE 10.4 mph 17.3 mph 0.00 in Snow Light Snow
5:53 AM 25.0 °F 15.5 °F 18.0 °F 75% 29.32 in 10.0 mi NNE 9.2 mph 16.1 mph 0.00 in   Overcast
6:53 AM 26.1 °F 16.2 °F 18.0 °F 71% 29.31 in 10.0 mi North 10.4 mph - 0.00 in   Overcast
7:53 AM 26.1 °F 19.4 °F 19.0 °F 75% 29.32 in 10.0 mi NNE 5.8 mph - 0.00 in   Overcast
8:53 AM 26.1 °F 18.4 °F 18.0 °F 71% 29.33 in 10.0 mi NNE 6.9 mph - N/A   Overcast
9:53 AM 26.1 °F 20.5 °F 18.0 °F 71% 29.34 in 10.0 mi NNE 4.6 mph - N/A   Overcast
10:27 AM 26.6 °F 22.6 °F 21.2 °F 80% 29.33 in 4.0 mi ENE 3.5 mph - 0.00 in Snow Light Snow
10:49 AM 26.6 °F 19.1 °F 19.4 °F 74% 29.33 in 8.0 mi North 6.9 mph - 0.00 in Snow Light Snow
10:53 AM 26.1 °F 19.4 °F 19.9 °F 78% 29.35 in 9.0 mi North 5.8 mph - 0.00 in   Overcast
11:29 AM 26.6 °F 22.6 °F 19.4 °F 74% 29.33 in 2.5 mi North 3.5 mph - 0.00 in Snow Light Snow
11:37 AM 26.6 °F 20.0 °F 21.2 °F 80% 29.34 in 3.0 mi North 5.8 mph - 0.00 in Snow Light Snow
11:53 AM 26.1 °F 20.5 °F 21.0 °F 81% 29.37 in 3.0 mi North 4.6 mph - 0.00 in Snow Light Snow
12:53 PM 27.0 °F 23.0 °F 21.9 °F 81% 29.37 in 10.0 mi North 3.5 mph - 0.00 in   Overcast
1:53 PM 28.9 °F 25.2 °F 23.0 °F 78% 29.38 in 8.0 mi Variable 3.5 mph - 0.00 in Snow Light Snow
2:18 PM 28.4 °F - 24.8 °F 86% 29.37 in 1.8 mi Calm Calm - 0.00 in Snow Light Snow
2:34 PM 28.4 °F 24.6 °F 24.8 °F 86% 29.37 in 1.5 mi North 3.5 mph - 0.00 in Snow Light Snow
2:53 PM 28.9 °F 25.2 °F 25.0 °F 85% 29.39 in 1.2 mi NNE 3.5 mph - 0.01 in Snow Light Snow
3:09 PM 28.4 °F 24.6 °F 24.8 °F 86% 29.38 in 3.0 mi NNE 3.5 mph - 0.00 in Snow Light Snow
3:35 PM 28.4 °F 24.6 °F 26.6 °F 93% 29.38 in 1.8 mi NE 3.5 mph - 0.00 in Snow Light Snow
3:43 PM 28.4 °F - 26.6 °F 93% 29.38 in 1.5 mi Calm Calm - 0.00 in Snow Light Snow
3:53 PM 28.9 °F - 27.0 °F 92% 29.40 in 2.5 mi Calm Calm - 0.00 in Snow Light Snow
4:11 PM 28.4 °F - 28.4 °F 100% 29.39 in 1.5 mi Calm Calm - 0.00 in Snow Light Snow
4:36 PM 30.2 °F - 26.6 °F 86% 29.39 in 1.0 mi Calm Calm - 0.01 in Snow Light Snow
4:53 PM 28.9 °F - 27.0 °F 92% 29.42 in 1.5 mi Calm Calm - 0.02 in Snow Light Snow
4:58 PM 28.4 °F - 26.6 °F 93% 29.40 in 3.0 mi Calm Calm - 0.00 in Snow Light Snow
5:26 PM 28.4 °F - 26.6 °F 93% 29.41 in 10.0 mi Calm Calm - 0.00 in   Overcast
5:53 PM 28.9 °F - 26.1 °F 89% 29.44 in 10.0 mi Calm Calm - 0.00 in   Overcast
6:53 PM 28.9 °F - 26.1 °F 89% 29.47 in 10.0 mi Calm Calm - N/A   Overcast
6:57 PM 28.4 °F - 26.6 °F 93% 29.45 in 10.0 mi Calm Calm - N/A   Overcast
7:04 PM 28.4 °F 24.6 °F 26.6 °F 93% 29.46 in 10.0 mi SSW 3.5 mph - N/A   Overcast
7:43 PM 28.4 °F 22.2 °F 26.6 °F 93% 29.46 in 10.0 mi SSW 5.8 mph - N/A   Mostly Cloudy
7:50 PM 28.4 °F - 26.6 °F 93% 29.47 in 10.0 mi Calm Calm - N/A   Mostly Cloudy
7:53 PM 28.9 °F 25.2 °F 27.0 °F 92% 29.49 in 10.0 mi SSW 3.5 mph - N/A   Mostly Cloudy
8:19 PM 28.4 °F 21.2 °F 26.6 °F 93% 29.47 in 10.0 mi Variable 6.9 mph - N/A   Overcast
8:53 PM 28.0 °F 20.8 °F 27.0 °F 96% 29.50 in 10.0 mi South 6.9 mph - N/A   Overcast
9:53 PM 27.0 °F 20.5 °F 26.1 °F 96% 29.51 in 10.0 mi South 5.8 mph - N/A   Overcast
10:12 PM 26.6 °F 18.2 °F 24.8 °F 93% 29.50 in 10.0 mi South 8.1 mph - N/A   Scattered Clouds
10:53 PM 26.1 °F 19.4 °F 23.0 °F 88% 29.54 in 10.0 mi SSE 5.8 mph - N/A   Clear
11:53 PM 25.0 °F 17.1 °F 19.9 °F 81% 29.57 in 10.0 mi South 6.9 mph - N/A   Overcast